Regional Weather Roundup
Issued by NWS

Home | Current Version | Previous Version | Text Only | Print | Product List | Glossary On
Versions: 1 2 3 4 5 6 7 8 9 10 11 12 13 14 15 16 17 18 19 20 21 22 23 24 25 26 27 28 29 30 31 32 33 34 35 36 37 38 39 40 41 42 43 44 45 46 47 48 49 50
000
ASUS43 KFSD 190302
RWRSD

WEATHER ROUNDUP FOR SOUTH DAKOTA
NATIONAL WEATHER SERVICE SIOUX FALLS SD
1000 PM CDT SAT APR 18 2015

NOTE: "FAIR" INDICATES FEW OR NO CLOUDS BELOW 12,000 FEET WITH NO
SIGNIFICANT WEATHER AND/OR OBSTRUCTIONS TO VISIBILITY.


SDZ001>005-009-010-012>017-190400-
NORTHWEST AND NORTH CENTRAL SOUTH DAKOTA

CITY           SKY/WX    TMP DP  RH WIND       PRES   REMARKS
BUFFALO          N/A     48  40  73 N18       29.93R
FAITH            N/A     45  43  93 NW5       29.96R
MOBRIDGE       LGT RAIN  49  45  86 N14       29.86S
$$

SDZ012>016-024>037-041>051-057-063-072>074-190400-
SOUTHWEST AND SOUTH CENTRAL SOUTH DAKOTA

CITY           SKY/WX    TMP DP  RH WIND       PRES   REMARKS
RAPID CTY ARPT LGT RAIN  45  44  97 NW17      29.96S
PIERRE         CLOUDY    47  46  97 NW15      29.85S
CUSTER         LGT RAIN  36  33  89 N8        29.96S
ELLSWORTH AFB  LGT RAIN  45  45 100 NW15      29.96
PHILIP         CLOUDY    48  43  82 N14       29.90F
PINE RIDGE     CLOUDY    47  43  86 NW9       29.94R
WINNER         CLOUDY    55  52  89 NW8       29.84S FOG
$$

SDZ004>011-016>023-039-040-190400-
NORTHEAST SOUTH DAKOTA

CITY           SKY/WX    TMP DP  RH WIND       PRES   REMARKS
ABERDEEN       CLOUDY    54  51  90 NW8       29.82F
WATERTOWN      LGT RAIN  56  53  90 E7        29.83F FOG
BROOKINGS      CLOUDY    55  54  94 SE7       29.83S
SISSETON         N/A     55  53  93 SE9       29.84F
$$

SDZ017-020-022-023-036>040-048>070-190400-
SOUTHEAST SOUTH DAKOTA

CITY           SKY/WX    TMP DP  RH WIND       PRES   REMARKS
SIOUX FALLS    CLOUDY    57  55  93 SE3       29.81F
HURON          LGT RAIN  55  54  96 CALM      29.81S FOG
MITCHELL       CLOUDY    57  55  93 N5        29.81S FOG
YANKTON        CLOUDY    57  55  94 E5        29.80S
$$

ABBREVIATIONS USED IN REMARKS
   TC - TEMPERATURE IN CELSIUS
  WCI - WIND CHILL INDEX
   HX - HEAT INDEX
  VSB - VISIBILITY



USA.gov is the U.S. government's official web portal to all federal, state and local government web resources and services.